Voltar ao catálogo

STPSAT-5

AtivoCiênciaSSO
NORAD 43762·PAYLOAD·🇺🇸 United States

Lançado Dec 3, 2018 de Vandenberg Space Force Base

Loading…

Próximas Passagens (próximas 24 horas)

TLE

AtualizadoSource: Space-Track

Época: Sep 14, 2026, 14:00 UTC

1 43762U 18099E   26257.58364846  .00003105  00000-0  17288-3 0  9993
2 43762  97.3998 304.9315 0004060  48.4811 311.6769 15.14342273426399

Acompanhe STPSAT-5 em tempo real com AllMySat

Download on the App Store